Location: São Paulo
(23.5507°S, 46.6334°W)
Time: 19:38:25
(UTC-03:00)

Vanguard 2 Rocket - Pass Details

Date: 22 February 2026
Orbit: 553 x 3286 km, 32.9° (Epoch: 11 March)

Event Time Altitude Azimuth Distance (km) Brightness Sun altitude
Exits shadow 01:26:57 12° 117° (ESE) 2,988 9.8 -52.5°
Drops below altitude 10° 01:27:38 10° 115° (ESE) 3,231 10.0 -52.4°
Sets 01:31:44 0° 107° (ESE) 4,680 10.9 -52.0°
